Terminal Aerodrome Forecast
Issued by NWS Louisville, KY

Home | Current Version | Previous Version | Text Only | Print | Product List | Glossary On
Versions: 1 2 3 4 5 6 7 8 9 10 11 12 13 14 15
000
FTUS43 KLMK 191500 AAA
TAFLEX
TAF AMD
KLEX 191556Z 1916/2012 04005KT P6SM BKN015
     FM191900 04005KT P6SM SCT020
     FM200400 VRB03KT P6SM SCT060 BKN200=

USA.gov is the U.S. government's official web portal to all federal, state and local government web resources and services.